DW2257 Swampscott MA US current weather conditions

sailwx.info

Wind from 130 at 6 knots gusting 13

Air temperature 9.4° C
Dewpoint 9.1° C

Last reported at 2019-Dec-14 13:01 UTC.
Time now 2019-Dec-14 13:34 UTC

Location: N 42°28' W 070°55'.
View on Google Maps.

See reports from other nearby stations

  
Tides and Currents Weather Stations Pressure Air Temp Water Temp Dewpoint Dewpoint Depression Visibility Wind Speed Wind Dir Waves Ship Positions
date/time (UTC)wind fromknots sea level pressurealtimeterstation pressurevisibilityair tempwater tempwave heightnotes
2019-Dec-14 13:01 130 6 gusting 13 9.4
2019-Dec-14 12:46 123 6 gusting 13 9.4
2019-Dec-14 12:31 134 6 gusting 14 9.4
2019-Dec-14 12:16 134 7 gusting 13 9.4
2019-Dec-14 12:01 150 9 gusting 15 9.4
2019-Dec-14 11:46 144 6 gusting 16 10.0
2019-Dec-14 11:31 107 7 gusting 15 10.0
2019-Dec-14 10:46 118 6 gusting 17 10.0
2019-Dec-14 10:31 116 4 gusting 13 10.0
2019-Dec-14 10:16 117 5 gusting 12 10.0
2019-Dec-14 10:01 101 6 gusting 14 10.0
2019-Dec-14 09:46 118 2 gusting 9 10.0
2019-Dec-14 09:31 113 5 gusting 9 9.4
2019-Dec-14 09:01 123 3 gusting 11 9.4
2019-Dec-14 08:46 057 3 gusting 10 9.4
2019-Dec-14 08:31 065 4 gusting 11 9.4
2019-Dec-14 08:16 070 1 gusting 8 8.9
2019-Dec-14 08:01 049 2 gusting 10 8.9
2019-Dec-14 07:46 051 2 gusting 7 8.9
2019-Dec-14 07:31 061 4 gusting 7 8.9
2019-Dec-14 07:16 055 1 gusting 6 8.9
2019-Dec-14 07:01 061 0 gusting 9 8.9
2019-Dec-14 06:46 088 1 gusting 7 8.9
2019-Dec-14 06:31 102 1 gusting 6 8.9
2019-Dec-14 06:16 113 1 gusting 5 8.9
2019-Dec-14 06:01 113 0 gusting 4 8.9
2019-Dec-14 05:46 113 0 gusting 5 8.9
2019-Dec-14 05:31 113 0 gusting 3 8.9
2019-Dec-14 05:16 113 0 gusting 5 8.9
2019-Dec-14 05:01 114 0 gusting 4 8.9
2019-Dec-14 04:46 114 2 gusting 5 8.3
2019-Dec-14 04:31 115 1 gusting 4 8.3
2019-Dec-14 04:16 115 8.3
2019-Dec-14 04:01 114 8.3
2019-Dec-14 03:46 115 0 gusting 3 8.3
2019-Dec-14 03:31 115 8.3
2019-Dec-14 03:16 115 0 gusting 5 8.3
2019-Dec-14 03:01 114 0 gusting 4 8.3
2019-Dec-14 02:46 114 8.3
2019-Dec-14 02:31 115 0 gusting 4 8.3
2019-Dec-14 02:16 115 0 gusting 5 8.3
2019-Dec-14 02:01 115 8.3
2019-Dec-14 01:46 119 1 gusting 5 8.3
2019-Dec-14 01:31 119 0 gusting 4 8.3
2019-Dec-14 01:16 119 0 gusting 4 8.3
2019-Dec-14 01:01 119 0 gusting 4 8.3
2019-Dec-14 00:46 120 2 gusting 5 7.8
2019-Dec-14 00:31 120 0 gusting 3 7.8
2019-Dec-14 00:16 120 7.8
2019-Dec-14 00:01 120 1 gusting 5 7.8
2019-Dec-13 23:46 123 1 gusting 5 7.8
2019-Dec-13 23:31 123 1 gusting 5 7.8
2019-Dec-13 23:16 123 1 gusting 4 7.8
2019-Dec-13 23:01 123 1 gusting 4 7.8
2019-Dec-13 22:46 124 1 gusting 6 7.2
2019-Dec-13 22:31 126 1 gusting 5 7.2
2019-Dec-13 22:16 126 1 gusting 4 7.2
2019-Dec-13 22:01 126 0 gusting 3 7.2
2019-Dec-13 21:46 126 0 gusting 5 7.2
2019-Dec-13 21:31 126 3 gusting 6 7.2
2019-Dec-13 21:16 126 1 gusting 6 7.2
2019-Dec-13 21:01 126 3 gusting 6 7.2
2019-Dec-13 20:46 126 4 gusting 6 7.2
2019-Dec-13 20:31 127 3 gusting 9 6.7
2019-Dec-13 20:16 127 2 gusting 8 6.7
2019-Dec-13 20:01 138 2 gusting 7 6.7
2019-Dec-13 19:46 138 1 gusting 8 6.7
2019-Dec-13 19:31 138 6.1
2019-Dec-13 19:16 138 6.1
2019-Dec-13 19:01 140 3 gusting 8 5.6
2019-Dec-13 18:46 146 4 gusting 7 5.6
2019-Dec-13 18:31 148 4 gusting 7 5.6
2019-Dec-13 18:16 148 1 gusting 7 5.6
2019-Dec-13 18:01 148 1 gusting 5 5.6
2019-Dec-13 17:46 148 3 gusting 5 5.6
2019-Dec-13 17:31 148 1 gusting 4 5.6
2019-Dec-13 17:16 146 1 gusting 4 5.0
2019-Dec-13 17:01 148 1 gusting 4 5.0
2019-Dec-13 16:46 148 1 gusting 3 5.0
2019-Dec-13 16:31 148 3 gusting 6 4.4
2019-Dec-13 16:16 148 2 gusting 4 4.4
2019-Dec-13 16:01 148 2 gusting 5 4.4
2019-Dec-13 15:46 146 2 gusting 8 4.4
2019-Dec-13 15:31 142 3 gusting 8 4.4
2019-Dec-13 15:16 148 3 gusting 8 4.4
2019-Dec-13 15:01 150 4 gusting 8 4.4
2019-Dec-13 14:46 159 6 gusting 10 3.9
2019-Dec-13 14:31 145 5 gusting 10 3.9
2019-Dec-13 14:16 157 6 gusting 10 3.9
2019-Dec-13 14:01 154 6 gusting 10 3.3
2019-Dec-13 13:46 154 6 gusting 12 3.3
2019-Dec-13 13:31 153 6 gusting 12 3.3
2019-Dec-13 13:16 142 9 gusting 13 3.3
2019-Dec-13 13:01 150 11 gusting 16 3.3
2019-Dec-13 12:46 168 7 gusting 13 2.8
2019-Dec-13 12:31 151 8 gusting 16 2.8
2019-Dec-13 12:16 159 10 gusting 16 2.8
2019-Dec-13 12:01 142 7 gusting 16 2.2
2019-Dec-13 11:46 172 8 gusting 16 2.2
2019-Dec-13 11:31 165 8 gusting 14 2.2
2019-Dec-13 11:16 146 8 gusting 14 2.2
2019-Dec-13 11:01 146 8 gusting 14 1.7
2019-Dec-13 10:46 159 6 gusting 14 1.7
2019-Dec-13 10:31 153 9 gusting 16 1.7
2019-Dec-13 10:16 157 8 gusting 13 1.7
2019-Dec-13 10:01 140 6 gusting 15 1.1
2019-Dec-13 09:46 150 9 gusting 14 1.1
2019-Dec-13 09:31 145 7 gusting 12 1.1
2019-Dec-13 09:16 144 8 gusting 14 1.1
2019-Dec-13 09:01 144 7 gusting 13 0.6
2019-Dec-13 08:46 167 7 gusting 13 0.6
2019-Dec-13 08:31 148 7 gusting 11 0.6
2019-Dec-13 08:16 140 6 gusting 13 0.6
2019-Dec-13 08:01 159 6 gusting 13 0.6
2019-Dec-13 07:46 147 6 gusting 13 0.6
2019-Dec-13 07:31 150 6 gusting 12 -0.0
2019-Dec-13 07:01 156 6 gusting 13 -0.0
2019-Dec-13 06:46 159 6 gusting 10 -0.0
2019-Dec-13 06:31 157 5 gusting 10 -0.0
2019-Dec-13 06:16 161 3 gusting 10 -0.6
2019-Dec-13 06:01 166 5 gusting 9 -0.6
2019-Dec-13 05:46 166 5 gusting 9 -0.6
2019-Dec-13 05:31 165 5 gusting 9 -0.6
2019-Dec-13 05:01 169 5 gusting 9 -0.6
2019-Dec-13 04:46 173 5 gusting 7 -0.6
2019-Dec-13 04:31 177 5 gusting 9 -0.6
2019-Dec-13 04:16 193 5 gusting 9 -0.6
2019-Dec-13 04:01 210 3 gusting 6 -0.6
2019-Dec-13 03:46 210 1 gusting 6 -0.6
2019-Dec-13 03:31 213 2 gusting 6 -0.6
2019-Dec-13 03:16 217 1 gusting 6 -0.6
2019-Dec-13 03:01 217 4 gusting 6 -1.1
2019-Dec-13 02:46 217 2 gusting 6 -0.6
2019-Dec-13 02:31 219 1 gusting 7 -1.1
2019-Dec-13 02:16 225 4 gusting 7 -1.1
2019-Dec-13 02:01 236 1 gusting 7 -1.1
2019-Dec-13 01:46 258 1 gusting 7 -1.1
2019-Dec-13 01:31 271 -2.2
2019-Dec-13 01:16 271 -2.2
2019-Dec-13 01:01 271 -2.2
2019-Dec-13 00:46 271 -2.2
2019-Dec-13 00:31 271 -2.2
2019-Dec-13 00:16 271 -2.2
2019-Dec-13 00:01 271 -2.2
2019-Dec-12 23:46 271 -2.2
2019-Dec-12 23:31 271 -2.2
2019-Dec-12 23:16 271 -1.7
2019-Dec-12 23:01 271 -1.7
2019-Dec-12 22:46 271 -1.7
2019-Dec-12 22:31 271 2 gusting 4 -1.7
2019-Dec-12 22:16 271 -1.7
2019-Dec-12 22:01 271 -1.7
2019-Dec-12 21:46 271 -1.7
2019-Dec-12 21:31 271 -1.7
2019-Dec-12 21:16 271 -1.1
2019-Dec-12 21:01 271 0 gusting 3 -1.1
2019-Dec-12 20:46 271 -0.6
2019-Dec-12 20:31 271 1 gusting 6 -0.6
2019-Dec-12 20:16 272 -0.6
2019-Dec-12 20:01 271 0 gusting 4 -0.6
2019-Dec-12 19:46 271 1 gusting 8 -0.6
2019-Dec-12 19:31 268 2 gusting 9 -0.6
2019-Dec-12 19:16 287 0 gusting 6 -0.6
2019-Dec-12 19:01 281 1 gusting 8 -0.6
2019-Dec-12 18:46 263 1 gusting 9 -0.6
2019-Dec-12 18:31 232 2 gusting 8 -0.6
2019-Dec-12 18:16 234 1 gusting 9 -0.6
2019-Dec-12 18:01 232 1 gusting 8 -1.1
2019-Dec-12 17:46 245 3 gusting 8 -1.1
2019-Dec-12 17:31 259 3 gusting 6 -1.1
2019-Dec-12 17:16 242 1 gusting 8 -1.1
2019-Dec-12 17:01 261 1 gusting 8 -1.1
2019-Dec-12 16:46 288 1 gusting 6 -1.1
2019-Dec-12 16:31 319 4 gusting 10 -1.1
2019-Dec-12 16:16 298 0 gusting 5 -1.7
2019-Dec-12 16:01 296 2 gusting 10 -1.7
2019-Dec-12 15:46 283 1 gusting 6 -1.7
2019-Dec-12 15:31 285 0 gusting 8 -1.7
2019-Dec-12 15:16 283 0 gusting 6 -2.2
2019-Dec-12 15:01 292 1 gusting 6 -2.2
2019-Dec-12 14:46 295 0 gusting 9 -2.2
2019-Dec-12 14:31 313 5 gusting 11 -2.2
2019-Dec-12 14:16 288 1 gusting 7 -2.8
2019-Dec-12 14:01 283 3 gusting 7 -3.3
2019-Dec-12 13:46 286 2 gusting 7 -3.3
2019-Dec-12 13:31 287 1 gusting 7 -3.9
2019-Dec-12 13:16 286 0 gusting 4 -3.9
2019-Dec-12 13:01 286 1 gusting 4 -4.4